Hourly Data Report for May 23, 2022

MIRAMICHI RCS
NEW BRUNSWICK
Current Station Operator: ECCC - MSC

47°00'34.000" N
65°27'54.000" W
33.00 m
8100989
71744
ACQ

Download Data

Hourly Data (May 2022)
Hourly Data Report for May 23, 2022
TIME
LST
Temp Definition
°C
Dew Point Definition
°C
Rel Hum Definition
%
Precip. Amount Definition
mm

Wind Dir Definition
10's deg

Wind Spd Definition
km/h
Visibility Definition
km
Stn Press Definition
kPa
Hmdx Definition


Wind Chill Definition


Weather Definition


00:00 17.8 14.5 81 0.0 29 11   100.62     LegendNANA
01:00 16.8 14.4 86 0.0 28 8   100.60     LegendNANA
02:00 16.6 13.6 83 0.0 29 12   100.69     LegendNANA
03:00 15.5 12.4 82 0.0 31 13   100.77     LegendNANA
04:00 14.0 10.6 80 0.0 30 14   100.85     LegendNANA
05:00 12.1 8.2 77 0.0 32 9   101.03     LegendNANA
06:00 11.0 7.1 77 0.0 29 12   101.18     LegendNANA
07:00 10.0 5.3 72 0.0 31 16   101.31     LegendNANA
08:00 9.9 5.0 72 0.0 30 18   101.37     LegendNANA
09:00 11.7 5.0 63 0.0 32 14   101.42     LegendNANA
10:00 11.2 3.6 60 0.0 33 20   101.46     LegendNANA
11:00 12.4 3.5 54 0.0 32 14   101.53     LegendNANA
12:00 12.6 3.3 53 0.0 32 14   101.56     LegendNANA
13:00 13.6 3.2 49 0.0 32 13   101.56     LegendNANA
14:00 14.4 3.1 46 0.0 33 14   101.55     LegendNANA
15:00 15.6 3.4 44 0.0 32 12   101.57     LegendNANA
16:00 15.6 3.0 43 0.0 36 14   101.60     LegendNANA
17:00 15.7 2.7 42 0.0 2 12   101.65     LegendNANA
18:00 14.7 2.1 43 0.0 3 8   101.70     LegendNANA
19:00 13.9 2.0 44 0.0 3 12   101.76     LegendNANA
20:00 10.0 6.3 78 0.0 5 12   101.88     LegendNANA
21:00 8.5 5.3 80 0.0 3 6   102.00     LegendNANA
22:00 7.1 4.8 85 0.0 11 1   102.05     LegendNANA
23:00 6.4 3.7 83 0.0 33 3   102.07     LegendNANA

Notes on Data Quality.

Legend

  • E = Estimated
  • M = Missing
  • NA = Not Available*
  • [empty] = Indicates an unobserved value
Date modified: